Regional Weather Roundup
Issued by NWS

Home | Current Version | Previous Version | Graphics & Text | Print | Product List | Glossary On
Versions: 1 2 3 4 5 6 7 8 9 10 11 12 13 14 15 16 17 18 19 20 21 22 23 24 25 26 27 28 29 30 31 32 33 34 35 36 37 38 39 40 41 42 43 44 45 46 47 48 49 50
000
ASUS44 KMEG 261100
RWRTN
TENNESSEE HOURLY STATE WEATHER ROUNDUP
NATIONAL WEATHER SERVICE MEMPHIS TN
500 AM CST SUN FEB 26 2017

TNZ002-004-019-021-049-052-054-088>092-261200-
WEST TENNESSEE

CITY           SKY/WX    TMP DP  RH WIND       PRES   REMARKS
MEMPHIS INTL   CLEAR     35  23  61 SE6       30.16F WCI  30
NWS MEMPHIS      N/A     30 N/A N/A MISG        N/A
JACKSON        CLEAR     24  22  91 S3        30.20R
UNION CITY     CLEAR     25  25 100 CALM      30.18S
PARIS          CLEAR     23  18  80 NE3       30.19R
$$

TNZ008-025-027-028-033-062-065-066-261200-
NORTH MIDDLE TENNESSEE

CITY           SKY/WX    TMP DP  RH WIND       PRES   REMARKS
NASHVILLE      CLEAR     28  22  78 S3        30.22R
CLARKSVILLE    CLEAR     24  20  84 CALM      30.21R
SMYRNA         CLEAR     23  21  92 CALM      30.23R
CROSSVILLE     CLEAR     23  17  78 W3        30.15R
$$

TNZ061-075-076-078-094-096-097-261200-
SOUTH MIDDLE TENNESSEE

CITY           SKY/WX    TMP DP  RH WIND       PRES   REMARKS
TULLAHOMA      CLEAR     25  21  86 CALM      30.18R
WINCHESTER     CLEAR     25  21  86 CALM      30.18R
MCMINNVILLE    CLEAR     25  25 100 CALM      30.19R
COLUMBIA       CLEAR     25  25 100 CALM      30.18S
SHELBYVILLE    CLEAR     25  25 100 E3        30.21R
$$

TNZ017-018-042-046-047-261200-
NORTHEAST TENNESSEE

CITY           SKY/WX    TMP DP  RH WIND       PRES   REMARKS
TRI CITIES     CLEAR     26  18  71 SW6       30.14R WCI  19
$$

TNZ012-013-036-069-073-074-261200-
CENTRAL EAST TENNESSEE

CITY           SKY/WX    TMP DP  RH WIND       PRES   REMARKS
KNOXVILLE      CLEAR     29  23  78 CALM      30.18R
OAK RIDGE      CLEAR     28  22  78 CALM      30.20R
GATLINBURG     CLEAR     25  19  80 CALM      30.18R
$$

TNZ083-085-099-261200-
SOUTHEAST TENNESSEE

CITY           SKY/WX    TMP DP  RH WIND       PRES   REMARKS
CHATTANOOGA    CLEAR     33  22  63 CALM      30.20R
$$

SKY/WX REPORTED AS FAIR MEANS FEW OR NO CLOUDS BELOW
12 THOUSAND FEET.





USA.gov is the U.S. government's official web portal to all federal, state and local government web resources and services.